Dades meteomassalio
Diari Summary for Gener 1, 2017 Units:  Metric    English   Both
« Previous Day
Next Day »
Diari Semanal Mensual Anual Personalitzat
  Maxima: Minima: Mijana:
Temperatura: -17.8 °C -18.4 °C -17.7 °C
Rosada: -17.8 °C -18.8 °C -18 °C
Humitat: Humidity % 95 % 95 %
Velocitat del vent: 0 km/h 0 km/h 0 km/h
Racha vent: 0 km/h - -
Vent:- - North
Pressio: 0 hPa 34750.5 hPa -
Pluja: 12.7 mm    
Historical Graphs
 
 
Tabular Data for Gener 1, 2017
Time Temperature Dew Point Pressure Wind Wind Speed Wind Gust Humidity Rainfall Rate (Hourly) solar Conditions
-17.8 °C -17.8 °C 0 hPa Calm     Humidity % 0 mm SolarRadiationWatts/m^2 W/m2 Conditions
00:00 -17.4 °C -17.8 °C 35038.3 hPa Calm     95 % 0 mm 0.0 W/m2 RA
00:05 -17.4 °C -17.7 °C 35038.3 hPa Calm     96 % 0 mm 0.0 W/m2 CLR
00:10 -17.4 °C -17.8 °C 35038.3 hPa Calm     95 % 0 mm 0.0 W/m2 CLR
00:15 -17.4 °C -17.9 °C 35024.8 hPa Calm     95 % 0 mm 0.0 W/m2 CLR
00:20 -17.4 °C -17.8 °C 35024.8 hPa Calm     95 % 0 mm 0.0 W/m2 CLR
00:25 -17.4 °C -17.7 °C 35024.8 hPa Calm     96 % 0 mm 0.0 W/m2 CLR
00:30 -17.4 °C -17.7 °C 35024.8 hPa Calm     96 % 0 mm 0.0 W/m2 CLR
00:35 -17.4 °C -17.7 °C 35024.8 hPa Calm     96 % 0 mm 0.0 W/m2 CLR
00:40 -17.4 °C -17.7 °C 35024.8 hPa Calm     96 % 0 mm 0.0 W/m2 CLR
00:45 -17.4 °C -17.7 °C 35024.8 hPa Calm     96 % 0 mm 0.0 W/m2 CLR
00:50 -17.4 °C -17.7 °C 35014.6 hPa Calm     96 % 0 mm 0.0 W/m2 CLR
00:55 -17.4 °C -17.7 °C 35014.6 hPa Calm     96 % 0 mm 0.0 W/m2 CLR
01:01 -17.4 °C -17.7 °C 35014.6 hPa Calm     96 % 0 mm 0.0 W/m2 CLR
01:06 -17.4 °C -17.7 °C 35014.6 hPa Calm     96 % 0 mm 0.0 W/m2 CLR
01:11 -17.4 °C -17.7 °C 35001.1 hPa Calm     96 % 0 mm 0.0 W/m2 CLR
01:16 -17.4 °C -17.8 °C 35014.6 hPa Calm     95 % 0 mm 0.0 W/m2 CLR
01:21 -17.4 °C -17.8 °C 35014.6 hPa Calm     95 % 0 mm 0.0 W/m2 CLR
01:26 -17.4 °C -17.9 °C 35001.1 hPa Calm     95 % 0 mm 0.0 W/m2 CLR
01:31 -17.4 °C -17.9 °C 35001.1 hPa Calm     95 % 0 mm 0.0 W/m2 CLR
01:36 -17.5 °C -17.9 °C 35001.1 hPa Calm     95 % 0 mm 0.0 W/m2 CLR
01:41 -17.4 °C -17.9 °C 35001.1 hPa Calm     95 % 0 mm 0.0 W/m2 CLR
01:46 -17.4 °C -17.9 °C 35001.1 hPa Calm     95 % 0 mm 0.0 W/m2 CLR
01:51 -17.4 °C -17.9 °C 35001.1 hPa Calm     95 % 0 mm 0.0 W/m2 CLR
01:56 -17.4 °C -17.9 °C 34990.9 hPa Calm     95 % 0 mm 0.0 W/m2 CLR
02:01 -17.4 °C -17.7 °C 34990.9 hPa Calm     96 % 0 mm 0.0 W/m2 CLR
02:06 -17.4 °C -17.7 °C 34990.9 hPa Calm     96 % 0 mm 0.0 W/m2 CLR
02:11 -17.4 °C -17.7 °C 34990.9 hPa Calm     96 % 0 mm 0.0 W/m2 CLR
02:16 -17.4 °C -17.7 °C 34990.9 hPa Calm     96 % 0 mm 0.0 W/m2 CLR
02:21 -17.4 °C -17.7 °C 34990.9 hPa Calm     96 % 0 mm 0.0 W/m2 CLR
02:26 -17.4 °C -17.7 °C 34990.9 hPa Calm     96 % 0 mm 0.0 W/m2 CLR
02:31 -17.4 °C -17.7 °C 34990.9 hPa Calm     96 % 0 mm 0.0 W/m2 CLR
02:36 -17.4 °C -17.7 °C 34980.8 hPa Calm     96 % 0 mm 0.0 W/m2 CLR
02:41 -17.4 °C -17.7 °C 34980.8 hPa Calm     96 % 0 mm 0.0 W/m2 CLR
02:46 -17.4 °C -17.7 °C 34980.8 hPa Calm     96 % 0 mm 0.0 W/m2 CLR
02:51 -17.4 °C -17.7 °C 34980.8 hPa Calm     96 % 0 mm 0.0 W/m2 CLR
02:56 -17.4 °C -17.7 °C 34980.8 hPa Calm     96 % 0 mm 0.0 W/m2 CLR
03:01 -17.4 °C -17.7 °C 34980.8 hPa Calm     96 % 0 mm 0.0 W/m2 CLR
03:06 -17.4 °C -17.7 °C 34980.8 hPa Calm     96 % 0 mm 0.0 W/m2 CLR
03:11 -17.4 °C -17.7 °C 34980.8 hPa Calm     96 % 0 mm 0.0 W/m2 CLR
03:16 -17.4 °C -17.7 °C 34980.8 hPa Calm     96 % 0 mm 0.0 W/m2 CLR
03:21 -17.4 °C -17.7 °C 34980.8 hPa Calm     96 % 0 mm 0.0 W/m2 CLR
03:26 -17.4 °C -17.7 °C 34967.2 hPa Calm     96 % 0 mm 0.0 W/m2 CLR
03:31 -17.4 °C -17.7 °C 34967.2 hPa Calm     96 % 0 mm 0.0 W/m2 CLR
03:36 -17.4 °C -17.7 °C 34967.2 hPa Calm     96 % 0 mm 0.0 W/m2 CLR
03:41 -17.4 °C -17.7 °C 34967.2 hPa Calm     96 % 0 mm 0.0 W/m2 CLR
03:46 -17.4 °C -17.7 °C 34967.2 hPa Calm     96 % 0 mm 0.0 W/m2 CLR
03:51 -17.4 °C -17.9 °C 34967.2 hPa Calm     95 % 0 mm 0.0 W/m2 CLR
03:56 -17.4 °C -17.8 °C 34967.2 hPa Calm     95 % 0 mm 0.0 W/m2 CLR
04:01 -17.4 °C -17.7 °C 34957.1 hPa Calm     96 % 0 mm 0.0 W/m2 CLR
04:06 -17.4 °C -17.7 °C 34957.1 hPa Calm     96 % 0 mm 0.0 W/m2 CLR
04:11 -17.4 °C -17.7 °C 34957.1 hPa Calm     96 % 0 mm 0.0 W/m2 CLR
04:16 -17.4 °C -17.7 °C 34946.9 hPa Calm     96 % 0 mm 0.0 W/m2 CLR
04:21 -17.4 °C -17.7 °C 34946.9 hPa Calm     96 % 0 mm 0.0 W/m2 CLR
04:26 -17.4 °C -17.8 °C 34946.9 hPa Calm     95 % 0 mm 0.0 W/m2 CLR
04:31 -17.4 °C -17.9 °C 34946.9 hPa Calm     95 % 0 mm 0.0 W/m2 CLR
04:36 -17.4 °C -17.9 °C 34933.4 hPa Calm     95 % 0 mm 0.0 W/m2 CLR
04:41 -17.5 °C -17.9 °C 34933.4 hPa Calm     95 % 0 mm 0.0 W/m2 CLR
04:46 -17.5 °C -17.9 °C 34933.4 hPa Calm     95 % 0 mm 0.0 W/m2 CLR
04:51 -17.6 °C -17.9 °C 34933.4 hPa Calm     95 % 0 mm 0.0 W/m2 CLR
04:56 -17.6 °C -17.9 °C 34923.2 hPa Calm     96 % 0 mm 0.0 W/m2 CLR
05:01 -17.6 °C -17.9 °C 34923.2 hPa Calm     96 % 0 mm 0.0 W/m2 CLR
05:06 -17.6 °C -17.9 °C 34923.2 hPa Calm     96 % 0 mm 0.0 W/m2 CLR
05:11 -17.6 °C -17.9 °C 34923.2 hPa Calm     96 % 0 mm 0.0 W/m2 CLR
05:16 -17.7 °C -18.1 °C 34923.2 hPa Calm     95 % 0 mm 0.0 W/m2 CLR
05:21 -17.7 °C -18.1 °C 34909.7 hPa Calm     95 % 0 mm 0.0 W/m2 CLR
05:26 -17.7 °C -18.1 °C 34923.2 hPa Calm     95 % 0 mm 0.0 W/m2 CLR
05:31 -17.7 °C -18.1 °C 34923.2 hPa Calm     95 % 0 mm 0.0 W/m2 CLR
05:36 -17.7 °C -18.1 °C 34923.2 hPa Calm     95 % 0 mm 0.0 W/m2 CLR
05:41 -17.7 °C -18.1 °C 34909.7 hPa Calm     95 % 0 mm 0.0 W/m2 CLR
05:46 -17.7 °C -18.1 °C 34909.7 hPa Calm     95 % 0 mm 0.0 W/m2 CLR
05:56 -17.7 °C -18.1 °C 34909.7 hPa Calm     95 % 0 mm 0.0 W/m2 CLR
06:01 -17.7 °C -18.1 °C 34909.7 hPa Calm     95 % 0 mm 0.0 W/m2 CLR
06:06 -17.7 °C -18.1 °C 34909.7 hPa Calm     95 % 0 mm 0.0 W/m2 CLR
06:11 -17.7 °C -18.1 °C 34909.7 hPa Calm     95 % 0 mm 0.0 W/m2 CLR
06:16 -17.7 °C -18.1 °C 34909.7 hPa Calm     96 % 0 mm 0.0 W/m2 CLR
06:21 -17.8 °C -18.1 °C 34909.7 hPa Calm     96 % 0 mm 0.0 W/m2 CLR
06:26 -17.8 °C -18.1 °C 34909.7 hPa Calm     96 % 0 mm 0.0 W/m2 CLR
06:31 -17.8 °C -18.1 °C 34909.7 hPa Calm     96 % 0 mm 0.0 W/m2 CLR
06:36 -17.8 °C -18.1 °C 34909.7 hPa Calm     96 % 0 mm 0.0 W/m2 CLR
06:41 -17.8 °C -18.1 °C 34909.7 hPa Calm     96 % 0 mm 0.0 W/m2 CLR
06:46 -17.8 °C -18.2 °C 34909.7 hPa Calm     95 % 0 mm 0.0 W/m2 CLR
06:51 -17.8 °C -18.2 °C 34909.7 hPa Calm     95 % 0 mm 0.0 W/m2 CLR
06:56 -17.8 °C -18.2 °C 34909.7 hPa Calm     95 % 0 mm 0.0 W/m2 CLR
07:01 -17.9 °C -18.3 °C 34909.7 hPa Calm     95 % 0 mm 0.0 W/m2 CLR
07:06 -17.9 °C -18.3 °C 34909.7 hPa Calm     95 % 0 mm 0.0 W/m2 CLR
07:11 -17.9 °C -18.3 °C 34909.7 hPa Calm     95 % 0 mm 0.0 W/m2 CLR
07:16 -17.9 °C -18.3 °C 34909.7 hPa Calm     95 % 0 mm 0.0 W/m2 CLR
07:21 -17.8 °C -18.2 °C 34899.5 hPa Calm     95 % 0 mm 0.0 W/m2 CLR
07:26 -17.8 °C -18.2 °C 34899.5 hPa Calm     95 % 0 mm 0.0 W/m2 CLR
07:31 -17.8 °C -18.2 °C 34899.5 hPa Calm     95 % 0 mm 0.0 W/m2 CLR
07:36 -17.8 °C -18.2 °C 34899.5 hPa Calm     95 % 0 mm 0.0 W/m2 CLR
07:41 -17.8 °C -18.2 °C 34899.5 hPa Calm     95 % 0 mm 0.0 W/m2 CLR
07:46 -17.9 °C -18.2 °C 34899.5 hPa Calm     96 % 0 mm 0.0 W/m2 CLR
07:51 -18 °C -18.4 °C 34899.5 hPa Calm     95 % 0 mm 0.0 W/m2 CLR
07:56 -18.1 °C -18.4 °C 34899.5 hPa Calm     95 % 0 mm 0.0 W/m2 CLR
08:01 -18.1 °C -18.4 °C 34899.5 hPa Calm     95 % 0 mm 0.0 W/m2 CLR
08:06 -18.1 °C -18.4 °C 34909.7 hPa Calm     95 % 0 mm 0.0 W/m2 CLR
08:11 -18.1 °C -18.4 °C 34909.7 hPa Calm     95 % 0 mm 0.0 W/m2 CLR
08:16 -18.1 °C -18.4 °C 34909.7 hPa Calm     95 % 0 mm 0.0 W/m2 CLR
08:21 -18.1 °C -18.4 °C 34909.7 hPa Calm     96 % 0 mm 0.0 W/m2 CLR
08:26 -18.1 °C -18.4 °C 34909.7 hPa Calm     96 % 0 mm 0.0 W/m2 OVC
08:31 -18.1 °C -18.4 °C 34899.5 hPa Calm     96 % 0 mm 0.0 W/m2 OVC
08:36 -18.2 °C -18.6 °C 34899.5 hPa Calm     95 % 0 mm 5.0 W/m2 OVC
08:41 -18.2 °C -18.6 °C 34899.5 hPa Calm     95 % 0 mm 5.0 W/m2 OVC
08:46 -18.2 °C -18.6 °C 34899.5 hPa Calm     95 % 0 mm 7.0 W/m2 BKN
08:51 -18.2 °C -18.6 °C 34899.5 hPa Calm     95 % 0 mm 9.0 W/m2 BKN
08:56 -18.2 °C -18.6 °C 34899.5 hPa Calm     95 % 0 mm 11.0 W/m2 BKN
09:01 -18.2 °C -18.6 °C 34899.5 hPa Calm     95 % 0 mm 12.0 W/m2 BKN
09:06 -18.2 °C -18.6 °C 34899.5 hPa Calm     95 % 0 mm 16.0 W/m2 BKN
09:12 -18.2 °C -18.6 °C 34899.5 hPa Calm     95 % 0 mm 18.0 W/m2 BKN
09:17 -18.2 °C -18.7 °C 34899.5 hPa Calm     95 % 0 mm 19.0 W/m2 BKN
09:22 -18.3 °C -18.7 °C 34899.5 hPa Calm     95 % 0 mm 23.0 W/m2 BKN
09:27 -18.2 °C -18.7 °C 34899.5 hPa Calm     95 % 0 mm 25.0 W/m2 BKN
09:32 -18.3 °C -18.7 °C 34899.5 hPa Calm     95 % 0 mm 28.0 W/m2 BKN
09:37 -18.3 °C -18.7 °C 34899.5 hPa Calm     95 % 0 mm 33.0 W/m2 BKN
09:42 -18.3 °C -18.7 °C 34899.5 hPa Calm     95 % 0 mm 35.0 W/m2 BKN
09:47 -18.3 °C -18.7 °C 34899.5 hPa Calm     95 % 0 mm 35.0 W/m2 BKN
09:52 -18.3 °C -18.7 °C 34899.5 hPa Calm     95 % 0 mm 39.0 W/m2 BKN
09:57 -18.3 °C -18.7 °C 34899.5 hPa Calm     95 % 0 mm 42.0 W/m2 BKN
10:02 -18.4 °C -18.8 °C 34899.5 hPa Calm     95 % 0 mm 46.0 W/m2 BKN
10:07 -18.4 °C -18.8 °C 34899.5 hPa Calm     95 % 0 mm 49.0 W/m2 BKN
10:12 -18.4 °C -18.8 °C 34899.5 hPa Calm     95 % 0 mm 60.0 W/m2 BKN
10:17 -18.4 °C -18.8 °C 34899.5 hPa Calm     95 % 0 mm 70.0 W/m2 BKN
10:22 -18.4 °C -18.8 °C 34899.5 hPa Calm     95 % 0 mm 72.0 W/m2 BKN
10:27 -18.4 °C -18.8 °C 34899.5 hPa Calm     95 % 0 mm 76.0 W/m2 BKN
10:32 -18.3 °C -18.7 °C 34899.5 hPa Calm     95 % 0 mm 74.0 W/m2 BKN
10:37 -18.4 °C -18.8 °C 34899.5 hPa Calm     95 % 0 mm 76.0 W/m2 BKN
10:42 -18.4 °C -18.8 °C 34899.5 hPa Calm     95 % 0 mm 70.0 W/m2 BKN
10:47 -18.3 °C -18.7 °C 34899.5 hPa Calm     95 % 0 mm 56.0 W/m2 BKN
10:52 -18.4 °C -18.8 °C 34899.5 hPa Calm     95 % 0 mm 98.0 W/m2 BKN
10:57 -18.3 °C -18.7 °C 34899.5 hPa Calm     95 % 0 mm 105.0 W/m2 BKN
11:02 -18.3 °C -18.7 °C 34899.5 hPa Calm     95 % 0 mm 109.0 W/m2 BKN
11:07 -18.3 °C -18.7 °C 34899.5 hPa Calm     95 % 0 mm 104.0 W/m2 BKN
11:12 -18.2 °C -18.6 °C 34889.3 hPa Calm     95 % 0 mm 105.0 W/m2 BKN
11:17 -18.2 °C -18.6 °C 34889.3 hPa Calm     95 % 0 mm 98.0 W/m2 BKN
11:22 -18.1 °C -18.5 °C 34889.3 hPa Calm     95 % 0 mm 100.0 W/m2 BKN
11:27 -18.1 °C -18.5 °C 34889.3 hPa Calm     95 % 0 mm 105.0 W/m2 BKN
11:32 -18.1 °C -18.4 °C 34889.3 hPa Calm     95 % 7.62 mm 93.0 W/m2 RA
11:37 -18 °C -18.4 °C 34889.3 hPa Calm     95 % 7.62 mm 97.0 W/m2 BKN
11:42 -18 °C -18.4 °C 34875.8 hPa Calm     95 % 7.62 mm 105.0 W/m2 BKN
11:47 -18 °C -18.4 °C 34875.8 hPa Calm     95 % 7.62 mm 105.0 W/m2 BKN
11:52 -17.9 °C -18.4 °C 34875.8 hPa Calm     95 % 7.62 mm 107.0 W/m2 BKN
11:57 -17.9 °C -18.3 °C 34875.8 hPa Calm     95 % 7.62 mm 93.0 W/m2 BKN
12:02 -17.9 °C -18.3 °C 34875.8 hPa Calm     95 % 7.62 mm 91.0 W/m2 BKN
12:07 -17.8 °C -18.2 °C 34865.6 hPa Calm     95 % 7.62 mm 95.0 W/m2 BKN
12:12 -17.8 °C -18.2 °C 34865.6 hPa Calm     95 % 7.62 mm 100.0 W/m2 BKN
12:17 -17.7 °C -18 °C 34865.6 hPa Calm     96 % 7.62 mm 91.0 W/m2 BKN
12:22 -17.7 °C -18.1 °C 34852.1 hPa Calm     96 % 7.62 mm 93.0 W/m2 BKN
12:27 -17.7 °C -18.1 °C 34852.1 hPa Calm     96 % 7.62 mm 93.0 W/m2 BKN
12:32 -17.7 °C -18.1 °C 34852.1 hPa Calm     96 % 0 mm 100.0 W/m2 BKN
12:37 -17.7 °C -18 °C 34841.9 hPa Calm     96 % 0 mm 105.0 W/m2 BKN
12:42 -17.7 °C -18 °C 34841.9 hPa Calm     96 % 0 mm 93.0 W/m2 BKN
12:47 -17.7 °C -18 °C 34841.9 hPa Calm     96 % 0 mm 97.0 W/m2 BKN
12:52 -17.7 °C -18 °C 34831.8 hPa Calm     96 % 0 mm 98.0 W/m2 BKN
12:57 -17.7 °C -18 °C 34831.8 hPa Calm     96 % 0 mm 104.0 W/m2 BKN
13:02 -17.7 °C -18 °C 34831.8 hPa Calm     96 % 0 mm 105.0 W/m2 BKN
13:07 -17.7 °C -18.1 °C 34818.2 hPa Calm     95 % 0 mm 100.0 W/m2 BKN
13:12 -17.7 °C -18.1 °C 34818.2 hPa Calm     95 % 0 mm 93.0 W/m2 BKN
13:17 -17.6 °C -18 °C 34818.2 hPa Calm     95 % 0 mm 90.0 W/m2 BKN
13:22 -17.6 °C -18 °C 34818.2 hPa Calm     95 % 0 mm 88.0 W/m2 BKN
13:27 -17.6 °C -18 °C 34818.2 hPa Calm     95 % 0 mm 88.0 W/m2 BKN
13:32 -17.6 °C -18 °C 34808.1 hPa Calm     95 % 0 mm 91.0 W/m2 BKN
13:37 -17.6 °C -18 °C 34808.1 hPa Calm     95 % 0 mm 91.0 W/m2 BKN
13:42 -17.6 °C -18 °C 34808.1 hPa Calm     95 % 0 mm 98.0 W/m2 BKN
13:47 -17.6 °C -17.9 °C 34808.1 hPa Calm     96 % 0 mm 100.0 W/m2 BKN
13:52 -17.6 °C -17.9 °C 34797.9 hPa Calm     96 % 0 mm 91.0 W/m2 BKN
13:58 -17.6 °C -17.9 °C 34797.9 hPa Calm     96 % 0 mm 97.0 W/m2 BKN
14:03 -17.6 °C -17.8 °C 34797.9 hPa Calm     96 % 0 mm 84.0 W/m2 BKN
14:08 -17.5 °C -17.9 °C 34797.9 hPa Calm     95 % 0 mm 88.0 W/m2 BKN
14:13 -17.5 °C -17.8 °C 34797.9 hPa Calm     96 % 0 mm 81.0 W/m2 BKN
14:18 -17.4 °C -17.9 °C 34797.9 hPa Calm     95 % 0 mm 81.0 W/m2 BKN
14:23 -17.4 °C -17.8 °C 34784.4 hPa Calm     95 % 0 mm 74.0 W/m2 BKN
14:28 -17.4 °C -17.7 °C 34784.4 hPa Calm     96 % 0 mm 70.0 W/m2 BKN
14:33 -17.4 °C -17.7 °C 34784.4 hPa Calm     96 % 0 mm 67.0 W/m2 BKN
14:38 -17.4 °C -17.7 °C 34784.4 hPa Calm     96 % 0 mm 69.0 W/m2 BKN
14:43 -17.4 °C -17.7 °C 34784.4 hPa Calm     96 % 0 mm 69.0 W/m2 BKN
14:48 -17.4 °C -17.7 °C 34784.4 hPa Calm     96 % 0 mm 58.0 W/m2 BKN
14:53 -17.4 °C -17.7 °C 34774.2 hPa Calm     96 % 0 mm 65.0 W/m2 BKN
14:58 -17.3 °C -17.7 °C 34774.2 hPa Calm     96 % 0 mm 63.0 W/m2 BKN
15:03 -17.3 °C -17.7 °C 34774.2 hPa Calm     96 % 0 mm 58.0 W/m2 BKN
15:08 -17.3 °C -17.7 °C 34774.2 hPa Calm     96 % 0 mm 56.0 W/m2 BKN
15:13 -17.3 °C -17.6 °C 34774.2 hPa Calm     96 % 0 mm 53.0 W/m2 BKN
15:18 -17.3 °C -17.6 °C 34774.2 hPa Calm     96 % 0 mm 51.0 W/m2 BKN
15:23 -17.3 °C -17.6 °C 34774.2 hPa Calm     96 % 0 mm 51.0 W/m2 BKN
15:28 -17.3 °C -17.7 °C 34774.2 hPa Calm     96 % 0 mm 46.0 W/m2 BKN
15:33 -17.3 °C -17.7 °C 34774.2 hPa Calm     96 % 0 mm 42.0 W/m2 BKN
15:38 -17.3 °C -17.7 °C 34774.2 hPa Calm     96 % 0 mm 44.0 W/m2 BKN
15:43 -17.3 °C -17.6 °C 34760.7 hPa Calm     96 % 0 mm 42.0 W/m2 BKN
15:48 -17.3 °C -17.6 °C 34760.7 hPa Calm     96 % 0 mm 44.0 W/m2 BKN
15:53 -17.3 °C -17.6 °C 34760.7 hPa Calm     96 % 0 mm 39.0 W/m2 BKN
15:58 -17.3 °C -17.7 °C 34774.2 hPa Calm     96 % 0 mm 37.0 W/m2 BKN
16:03 -17.3 °C -17.7 °C 34774.2 hPa Calm     96 % 0 mm 40.0 W/m2 BKN
16:08 -17.4 °C -17.7 °C 34760.7 hPa Calm     96 % 0 mm 35.0 W/m2 BKN
16:13 -17.4 °C -17.7 °C 34774.2 hPa Calm     96 % 0 mm 33.0 W/m2 BKN
16:18 -17.4 °C -17.7 °C 34760.7 hPa Calm     96 % 0 mm 32.0 W/m2 BKN
16:23 -17.4 °C -17.7 °C 34760.7 hPa Calm     96 % 0 mm 28.0 W/m2 BKN
16:28 -17.3 °C -17.7 °C 34760.7 hPa Calm     96 % 0 mm 21.0 W/m2 BKN
16:33 -17.3 °C -17.7 °C 34760.7 hPa Calm     96 % 0 mm 19.0 W/m2 BKN
16:38 -17.4 °C -17.7 °C 34760.7 hPa Calm     96 % 0 mm 19.0 W/m2 BKN
16:43 -17.4 °C -17.7 °C 34760.7 hPa Calm     96 % 0 mm 18.0 W/m2 BKN
16:48 -17.4 °C -17.7 °C 34760.7 hPa Calm     96 % 0 mm 16.0 W/m2 SCT
16:53 -17.3 °C -17.7 °C 34760.7 hPa Calm     96 % 0 mm 12.0 W/m2 CLR
17:03 -17.3 °C -17.7 °C 34760.7 hPa Calm     96 % 0 mm 9.0 W/m2 OVC
17:08 -17.4 °C -17.7 °C 34760.7 hPa Calm     96 % 0 mm 9.0 W/m2 OVC
17:13 -17.4 °C -17.7 °C 34760.7 hPa Calm     96 % 0 mm 7.0 W/m2 OVC
17:18 -17.4 °C -17.7 °C 34760.7 hPa Calm     96 % 0 mm 5.0 W/m2 OVC
17:23 -17.4 °C -17.7 °C 34750.5 hPa Calm     96 % 0 mm 5.0 W/m2 OVC
17:28 -17.4 °C -17.8 °C 34750.5 hPa Calm     95 % 0 mm 0.0 W/m2 OVC
17:33 -17.4 °C -17.8 °C 34750.5 hPa Calm     95 % 0 mm 0.0 W/m2 OVC
17:38 -17.4 °C -17.8 °C 34750.5 hPa Calm     95 % 0 mm 0.0 W/m2 OVC
17:43 -17.4 °C -17.7 °C 34750.5 hPa Calm     96 % 0 mm 0.0 W/m2 CLR
17:48 -17.4 °C -17.7 °C 34750.5 hPa Calm     96 % 0 mm 0.0 W/m2 CLR
17:53 -17.4 °C -17.7 °C 34760.7 hPa Calm     96 % 0 mm 0.0 W/m2 CLR
17:58 -17.4 °C -17.9 °C 34750.5 hPa Calm     95 % 0 mm 0.0 W/m2 CLR
18:03 -17.4 °C -17.9 °C 34750.5 hPa Calm     95 % 0 mm 0.0 W/m2 CLR
18:08 -17.5 °C -17.9 °C 34750.5 hPa Calm     95 % 0 mm 0.0 W/m2 CLR
18:13 -17.5 °C -17.9 °C 34750.5 hPa Calm     95 % 0 mm 0.0 W/m2 CLR
18:18 -17.5 °C -17.9 °C 34750.5 hPa Calm     95 % 0 mm 0.0 W/m2 CLR
18:23 -17.5 °C -17.9 °C 34750.5 hPa Calm     95 % 0 mm 0.0 W/m2 CLR
18:28 -17.5 °C -17.9 °C 34750.5 hPa Calm     95 % 0 mm 0.0 W/m2 CLR
18:33 -17.6 °C -17.9 °C 34750.5 hPa Calm     95 % 0 mm 0.0 W/m2 CLR
18:38 -17.6 °C -17.9 °C 34750.5 hPa Calm     96 % 0 mm 0.0 W/m2 CLR
18:43 -17.6 °C -17.9 °C 34750.5 hPa Calm     96 % 0 mm 0.0 W/m2 CLR
18:48 -17.6 °C -17.9 °C 34750.5 hPa Calm     96 % 0 mm 0.0 W/m2 CLR
18:53 -17.6 °C -17.9 °C 34750.5 hPa Calm     96 % 0 mm 0.0 W/m2 CLR
18:58 -17.6 °C -17.8 °C 34750.5 hPa Calm     96 % 0 mm 0.0 W/m2 CLR
19:03 -17.6 °C -17.9 °C 34750.5 hPa Calm     95 % 0 mm 0.0 W/m2 CLR
19:08 -17.6 °C -17.8 °C 34750.5 hPa Calm     96 % 0 mm 0.0 W/m2 CLR
19:13 -17.6 °C -17.9 °C 34750.5 hPa Calm     95 % 0 mm 0.0 W/m2 CLR
19:18 -17.6 °C -17.8 °C 34750.5 hPa Calm     96 % 0 mm 0.0 W/m2 CLR
19:23 -17.6 °C -17.8 °C 34750.5 hPa Calm     96 % 0 mm 0.0 W/m2 CLR
19:28 -17.6 °C -17.9 °C 34750.5 hPa Calm     96 % 0 mm 0.0 W/m2 CLR
19:33 -17.6 °C -17.8 °C 34750.5 hPa Calm     96 % 0 mm 0.0 W/m2 CLR
19:38 -17.6 °C -17.8 °C 34750.5 hPa Calm     96 % 0 mm 0.0 W/m2 CLR
19:43 -17.6 °C -17.8 °C 34750.5 hPa Calm     96 % 0 mm 0.0 W/m2 CLR
19:48 -17.5 °C -17.8 °C 34750.5 hPa Calm     96 % 0 mm 0.0 W/m2 CLR
19:54 -17.5 °C -17.8 °C 34750.5 hPa Calm     96 % 0 mm 0.0 W/m2 CLR
19:59 -17.5 °C -17.8 °C 34750.5 hPa Calm     96 % 0 mm 0.0 W/m2 CLR
20:04 -17.4 °C -17.8 °C 34750.5 hPa Calm     96 % 0 mm 0.0 W/m2 CLR
20:09 -17.4 °C -17.8 °C 34760.7 hPa Calm     96 % 0 mm 0.0 W/m2 CLR
20:14 -17.5 °C -17.8 °C 34760.7 hPa Calm     96 % 0 mm 0.0 W/m2 CLR
20:19 -17.5 °C -17.8 °C 34760.7 hPa Calm     96 % 0 mm 0.0 W/m2 CLR
20:24 -17.5 °C -17.8 °C 34760.7 hPa Calm     96 % 0 mm 0.0 W/m2 CLR
20:29 -17.4 °C -17.8 °C 34760.7 hPa Calm     96 % 0 mm 0.0 W/m2 CLR
20:34 -17.4 °C -17.8 °C 34760.7 hPa Calm     96 % 0 mm 0.0 W/m2 CLR
20:39 -17.4 °C -17.8 °C 34760.7 hPa Calm     95 % 0 mm 0.0 W/m2 CLR
20:44 -17.4 °C -17.8 °C 34760.7 hPa Calm     96 % 0 mm 0.0 W/m2 CLR
20:49 -17.4 °C -17.7 °C 34760.7 hPa Calm     96 % 0 mm 0.0 W/m2 CLR
20:54 -17.4 °C -17.7 °C 34760.7 hPa Calm     96 % 0 mm 0.0 W/m2 CLR
20:59 -17.4 °C -17.7 °C 34774.2 hPa Calm     96 % 0 mm 0.0 W/m2 CLR
21:04 -17.4 °C -17.7 °C 34774.2 hPa Calm     96 % 0 mm 0.0 W/m2 CLR
21:09 -17.4 °C -17.7 °C 34774.2 hPa Calm     96 % 0 mm 0.0 W/m2 CLR
21:14 -17.4 °C -17.7 °C 34774.2 hPa Calm     96 % 0 mm 0.0 W/m2 CLR
21:19 -17.4 °C -17.7 °C 34774.2 hPa Calm     96 % 0 mm 0.0 W/m2 CLR
21:24 -17.4 °C -17.7 °C 34774.2 hPa Calm     96 % 0 mm 0.0 W/m2 CLR
21:29 -17.4 °C -17.8 °C 34774.2 hPa Calm     96 % 0 mm 0.0 W/m2 CLR
21:34 -17.4 °C -17.8 °C 34774.2 hPa Calm     96 % 0 mm 0.0 W/m2 CLR
21:39 -17.5 °C -17.8 °C 34774.2 hPa Calm     96 % 0 mm 0.0 W/m2 CLR
21:44 -17.4 °C -17.8 °C 34774.2 hPa Calm     96 % 0 mm 0.0 W/m2 CLR
21:49 -17.4 °C -17.8 °C 34774.2 hPa Calm     96 % 0 mm 0.0 W/m2 CLR
21:54 -17.4 °C -17.8 °C 34774.2 hPa Calm     95 % 0 mm 0.0 W/m2 CLR
21:59 -17.4 °C -17.8 °C 34760.7 hPa Calm     96 % 0 mm 0.0 W/m2 CLR
22:04 -17.4 °C -17.7 °C 34760.7 hPa Calm     96 % 0 mm 0.0 W/m2 CLR
22:09 -17.4 °C -17.8 °C 34774.2 hPa Calm     96 % 0 mm 0.0 W/m2 CLR
22:14 -17.4 °C -17.8 °C 34774.2 hPa Calm     95 % 0 mm 0.0 W/m2 CLR
22:19 -17.4 °C -17.8 °C 34760.7 hPa Calm     96 % 0 mm 0.0 W/m2 CLR
22:24 -17.5 °C -17.8 °C 34760.7 hPa Calm     96 % 0 mm 0.0 W/m2 CLR
22:29 -17.5 °C -17.8 °C 34760.7 hPa Calm     96 % 0 mm 0.0 W/m2 CLR
22:34 -17.5 °C -17.8 °C 34760.7 hPa Calm     96 % 0 mm 0.0 W/m2 CLR
22:39 -17.5 °C -17.8 °C 34760.7 hPa Calm     96 % 0 mm 0.0 W/m2 CLR
22:49 -17.6 °C -17.8 °C 34760.7 hPa Calm     96 % 0 mm 0.0 W/m2 CLR
22:54 -17.6 °C -17.8 °C 34750.5 hPa Calm     96 % 7.62 mm 0.0 W/m2 RA
22:59 -17.6 °C -17.8 °C 34750.5 hPa Calm     96 % 7.62 mm 0.0 W/m2 CLR
23:04 -17.6 °C -17.9 °C 34760.7 hPa Calm     96 % 7.62 mm 0.0 W/m2 CLR
23:09 -17.6 °C -18 °C 34760.7 hPa Calm     95 % 7.62 mm 0.0 W/m2 CLR
23:14 -17.6 °C -18 °C 34760.7 hPa Calm     95 % 7.62 mm 0.0 W/m2 CLR
23:19 -17.6 °C -18 °C 34760.7 hPa Calm     95 % 7.62 mm 0.0 W/m2 CLR
23:24 -17.6 °C -18 °C 34760.7 hPa Calm     95 % 7.62 mm 0.0 W/m2 CLR
23:29 -17.6 °C -18 °C 34760.7 hPa Calm     95 % 7.62 mm 0.0 W/m2 CLR
23:34 -17.6 °C -18 °C 34760.7 hPa Calm     95 % 7.62 mm 0.0 W/m2 CLR
23:39 -17.7 °C -18.1 °C 34760.7 hPa Calm     95 % 7.62 mm 0.0 W/m2 CLR
23:44 -17.6 °C -18 °C 34774.2 hPa Calm     95 % 7.62 mm 0.0 W/m2 CLR
23:49 -17.6 °C -18 °C 34774.2 hPa Calm     95 % 7.62 mm 0.0 W/m2 CLR
23:54 -17.6 °C -18 °C 34774.2 hPa Calm     95 % 0 mm 0.0 W/m2 CLR
23:59 -17.6 °C -18 °C 34774.2 hPa Calm     95 % 0 mm 0.0 W/m2 CLR
Lo Temps de Massalio
Compliments of Weather Underground - 1.25 mb